Thermal, CA

7:50 AM PDT on March 27, 2017 (GMT -0700)
Desert Resorts Regional

Weather History for KTRM - July, 2013

Change the Weather History Date:

Tuesday, July 23, 2013

  Actual Average Record
Temperature  
Mean Temperature 94 °F 91 °F  
Max Temperature 106 °F 107 °F 119 °F (2014)
Min Temperature 82 °F 75 °F 65 °F (1993)
Degree Days  
Heating Degree Days 0 0  
Month to date heating degree days 0 0  
Since 1 June heating degree days 0 0  
Since 1 July heating degree days 0 0  
Cooling Degree Days 29 26  
Month to date cooling degree days 657 581  
Year to date cooling degree days 2287 1862  
Since 1 June cooling degree days 1380 1189  
Growing Degree Days 44 (Base 50)    
Moisture  
Dew Point 62 °F    
Average Humidity 38    
Maximum Humidity 51    
Minimum Humidity 25    
Precipitation  
Precipitation 0.00 in 0.00 in 0.00 in (2017)
Month to date precipitation 0.05 0.09  
Year to date precipitation 0.49 1.91  
Since 1 July precipitation 0.05  
Snow  
Snow 0.00 in - - ()
Month to date snowfall 0.0  
Year to date snowfall 0.0  
Snow Depth 0.00 in    
Sea Level Pressure  
Sea Level Pressure 29.80 in    
Wind  
Wind Speed 6 mph (NW)    
Max Wind Speed 12 mph    
Max Gust Speed 20 mph    
Visibility 10 miles    
Events      
T = Trace of Precipitation, MM = Missing Value Source: NWS Daily Summary

Daily Weather History Graph

Daily Weather History Graph

Search for Another Location

Airport or City:

Trip Planner

Search our weather history database for the weather conditions in past years. The results will help you decide how hot, cold, wet, or windy it might be!

Date:

Astronomy

Jul. 23, 2013 Rise Set
Actual Time 5:50 AM PDT 7:51 PM PDT
Civil Twilight 5:22 AM PDT 8:18 PM PDT
Nautical Twilight 4:49 AM PDT 8:52 PM PDT
Astronomical Twilight 4:12 AM PDT 9:28 PM PDT
Moon 8:30 PM PDT (7/23) 6:58 AM PDT (7/23)
Length of Visible Light 14h 55m
Length of Day
14h 00m
Full, 98% of the Moon is Illuminated
Jul 23
Full
Jul 29
Last Quarter
Aug 6
New
Aug 14
First Quarter
Aug 20
Full

Hourly Weather History & Observations

Time (PDT) Temp. Heat Index Dew Point Humidity Pressure Visibility Wind Dir Wind Speed Gust Speed Precip Events Conditions
12:52 AM 87.1 °F 87.8 °F 63.0 °F 44% 29.82 in 10.0 mi NNW 8.1 mph - N/A   Clear
1:52 AM 84.9 °F 85.9 °F 63.0 °F 48% 29.82 in 10.0 mi NNW 6.9 mph - N/A   Clear
2:52 AM 84.9 °F 85.9 °F 63.0 °F 48% 29.82 in 10.0 mi NW 9.2 mph - N/A   Clear
3:52 AM 84.0 °F 84.9 °F 63.0 °F 49% 29.83 in 10.0 mi NW 6.9 mph - N/A   Clear
4:52 AM 82.9 °F 84.0 °F 63.0 °F 51% 29.84 in 10.0 mi NNW 4.6 mph - N/A   Clear
5:52 AM 82.0 °F 83.1 °F 63.0 °F 52% 29.85 in 10.0 mi NNW 5.8 mph - N/A   Clear
6:52 AM 84.0 °F 84.9 °F 63.0 °F 49% 29.86 in 10.0 mi NNW 8.1 mph - N/A   Clear
7:52 AM 88.0 °F 88.7 °F 63.0 °F 43% 29.88 in 10.0 mi NNW 9.2 mph - N/A   Clear
8:52 AM 90.0 °F 90.6 °F 63.0 °F 40% 29.88 in 10.0 mi NW 3.5 mph - N/A   Clear
9:52 AM 93.0 °F 94.6 °F 64.0 °F 38% 29.88 in 10.0 mi Variable 5.8 mph - N/A   Clear
10:52 AM 96.1 °F 98.8 °F 64.9 °F 36% 29.87 in 10.0 mi Variable 3.5 mph - N/A   Clear
11:52 AM 99.0 °F 102.9 °F 66.0 °F 34% 29.85 in 10.0 mi Variable 4.6 mph - N/A   Clear
12:52 PM 100.9 °F 105.3 °F 66.0 °F 32% 29.82 in 10.0 mi South 8.1 mph - N/A   Clear
1:52 PM 102.9 °F 106.1 °F 64.0 °F 28% 29.80 in 10.0 mi Variable 4.6 mph - N/A   Clear
2:52 PM 105.1 °F 107.8 °F 63.0 °F 25% 29.77 in 10.0 mi South 8.1 mph - N/A   Clear
3:52 PM 105.1 °F 107.8 °F 63.0 °F 25% 29.74 in 10.0 mi Variable 4.6 mph - N/A   Clear
4:52 PM 104.0 °F 106.0 °F 62.1 °F 25% 29.73 in 10.0 mi Calm Calm - N/A   Clear
5:52 PM 104.0 °F 107.4 °F 64.0 °F 27% 29.70 in 10.0 mi South 4.6 mph - N/A   Clear
6:52 PM 102.0 °F 106.6 °F 66.0 °F 31% 29.70 in 10.0 mi South 4.6 mph - N/A   Clear
7:52 PM 100.0 °F 99.2 °F 57.0 °F 24% 29.71 in 10.0 mi NNW 13.8 mph 20.7 mph N/A   Clear
8:52 PM 97.0 °F 95.3 °F 55.9 °F 25% 29.73 in 10.0 mi NNW 16.1 mph 24.2 mph N/A   Clear
9:52 PM 95.0 °F 94.0 °F 57.9 °F 29% 29.75 in 10.0 mi NNW 18.4 mph 26.5 mph N/A   Clear
10:52 PM 93.9 °F 92.6 °F 57.0 °F 29% 29.76 in 10.0 mi NNW 18.4 mph 25.3 mph N/A   Clear
11:52 PM 91.9 °F 90.8 °F 57.9 °F 32% 29.77 in 10.0 mi NW 13.8 mph 20.7 mph N/A   Clear